Location: Newark
(45.0333°N, 18.2865°E)
Time: 04:55:14
(UTC+00:00)

X-37B - Pass Details

Date: 01 October 2021
Orbit: 385 x 389 km, 45.0° (Epoch: 17 October)

Event Time Altitude Azimuth Distance (km) Brightness Sun altitude
Exits shadow 02:43:46 45° 105° (ESE) 534 1.6 -21.9°
Drops below altitude 10° 02:46:06 10° 101° (E) 1,412 4.3 -21.5°
Sets 02:48:10 0° 100° (E) 2,267 5.5 -21.2°
